Bei Facebook empfehlenBei Twitter postenGoogle plusPinterest

Das Wetter im Erzgebirge am 25.01.2015

Wetter und Klima am 25.01.2015 Holzhau im Erzgebirge (630m ü.NN)
Letzte gemessene Temperatur und Uhrzeit der Messung23:45:00 Uhr-1.90 °C
Temperatur (Maximum / Höchstwert) und Uhrzeit der Messung13:15:00 Uhr-0.60 °C
Temperatur (Minimum / Tiefstwert) und Uhrzeit der Messung01:00:00-3.10 °C
Errechneter Absolutwert der Temperaturschwankungen zwischen Tmin und Tmax des Tages2.50 K
Errechnete Tagesmitteltemperatur-1.73021 °C
Gesamt - Niederschlag des Tages (in flüssiger Form)0.00 Liter / m²
Luftdruck (Maximum / Höchstwert) und Zeitpunkt der Messung22:45:00 Uhr1021.70 hPa
Luftdruck (Minimum / Tiefstwert) und Zeitpunkt der Messung01:15:00 Uhr1015.50 hPa
Errechneter Absolutwert der Luftdruckschwankungen des Tages6.20 hPa
Höchste gemessene Windgeschwindigkeit und Uhrzeit der Messung23:45:00 Uhr0.00 km/h
Errechnete Windhäufigkeit in Relation zu den Messwerten des Tages0.00000 %
Niedrigste Windkühle (Windchill) und Zeitpunkt der Messung01:00:00 Uhr-3.10 °C
Taupunkt (Maximum / Höchstwert) und Uhrzeit der Messung13:15:00 Uhr-1.50 °C
Taupunkt (Minimum / Tiefstwert) und Uhrzeit der Messung00:45:00-4.30 °C
Anzahl der automatisch eingelesenen Messwerte 96

Detaillierte Wetter- und Klima- Messwerte für den 25.01.2015 in Holzhau im Erzgebirge (630m ü.NN)
ZeitTemperaturLuftdruckRel. LuftfeuchteWindWindrichtungWindchillTaupunktNiederschlag l/m²
23:45:00-1.90 °C1021.20 hPa93.00 %-3.00 °C 
23:30:00-1.80 °C1021.40 hPa93.00 %-2.90 °C 
23:15:00-1.80 °C1021.30 hPa93.00 %-2.90 °C 
23:00:00-1.70 °C1021.60 hPa93.00 %-2.80 °C 
22:45:00-1.70 °C1021.70 hPa93.00 %-2.80 °C 
22:30:00-1.70 °C1021.50 hPa93.00 %-2.80 °C 
22:15:00-1.70 °C1021.60 hPa93.00 %-2.80 °C 
22:00:00-1.70 °C1021.60 hPa93.00 %-2.80 °C 
21:45:00-1.80 °C1021.60 hPa93.00 %-2.90 °C 
21:30:00-1.90 °C1021.50 hPa93.00 %-3.00 °C 
21:15:00-1.90 °C1021.50 hPa93.00 %-3.00 °C 
21:00:00-1.90 °C1021.60 hPa93.00 %-3.00 °C 
20:45:00-1.70 °C1021.60 hPa93.00 %-2.80 °C 
20:30:00-1.70 °C1021.60 hPa93.00 %-2.80 °C 
20:15:00-1.70 °C1021.50 hPa93.00 %-2.80 °C 
20:00:00-1.60 °C1021.30 hPa93.00 %-2.70 °C 
19:45:00-1.60 °C1021.40 hPa93.00 %-2.70 °C 
19:30:00-1.60 °C1021.20 hPa93.00 %-2.70 °C 
19:15:00-1.60 °C1021.30 hPa93.00 %-2.70 °C 
19:00:00-1.60 °C1021.30 hPa93.00 %-2.70 °C 
18:45:00-1.60 °C1021.20 hPa93.00 %-2.70 °C 
18:30:00-1.60 °C1021.30 hPa93.00 %-2.70 °C 
18:15:00-1.60 °C1021.30 hPa93.00 %-2.70 °C 
18:00:00-1.60 °C1021.40 hPa93.00 %-2.70 °C 
17:45:00-1.60 °C1021.00 hPa93.00 %-2.70 °C 
17:30:00-1.60 °C1021.00 hPa93.00 %-2.70 °C 
17:15:00-1.50 °C1021.10 hPa93.00 %-2.60 °C 
17:00:00-1.50 °C1021.00 hPa93.00 %-2.60 °C 
16:45:00-1.40 °C1020.90 hPa93.00 %-2.50 °C 
16:30:00-1.30 °C1020.70 hPa93.00 %-2.40 °C 
16:15:00-1.40 °C1020.60 hPa93.00 %-2.50 °C 
16:00:00-1.20 °C1020.50 hPa93.00 %-2.30 °C 
15:45:00-1.10 °C1020.60 hPa93.00 %-2.20 °C 
15:30:00-0.90 °C1020.20 hPa93.00 %-2.00 °C 
15:15:00-0.90 °C1020.20 hPa93.00 %-2.00 °C 
15:00:00-0.80 °C1020.00 hPa93.00 %-1.90 °C 
14:45:00-0.90 °C1019.80 hPa93.00 %-2.00 °C 
14:30:00-0.90 °C1019.80 hPa93.00 %-2.00 °C 
14:15:00-0.90 °C1019.70 hPa93.00 %-2.00 °C 
14:00:00-0.80 °C1019.60 hPa93.00 %-1.90 °C 
13:45:00-0.80 °C1019.80 hPa93.00 %-1.90 °C 
13:30:00-0.70 °C1019.90 hPa93.00 %-1.80 °C 
13:15:00-0.60 °C1019.90 hPa94.00 %-1.50 °C 
13:00:00-0.70 °C1020.00 hPa94.00 %-1.60 °C 
12:45:00-0.80 °C1020.00 hPa94.00 %-1.70 °C 
12:30:00-0.70 °C1020.20 hPa94.00 %-1.60 °C 
12:15:00-0.80 °C1020.20 hPa94.00 %-1.70 °C 
12:00:00-0.80 °C1020.20 hPa94.00 %-1.70 °C 
11:45:00-0.90 °C1020.30 hPa94.00 %-1.80 °C 
11:30:00-1.10 °C1020.40 hPa94.00 %-2.00 °C 
11:15:00-1.10 °C1020.40 hPa94.00 %-2.00 °C 
11:00:00-1.40 °C1020.40 hPa94.00 %-2.30 °C 
10:45:00-1.40 °C1020.30 hPa94.00 %-2.30 °C 
10:30:00-1.60 °C1020.40 hPa94.00 %-2.50 °C 
10:15:00-1.60 °C1020.10 hPa94.00 %-2.50 °C 
10:00:00-1.60 °C1020.00 hPa94.00 %-2.50 °C 
09:45:00-1.70 °C1019.90 hPa94.00 %-2.60 °C 
09:30:00-1.80 °C1020.00 hPa94.00 %-2.70 °C 
09:15:00-1.80 °C1019.70 hPa94.00 %-2.70 °C 
09:00:00-1.80 °C1019.60 hPa94.00 %-2.70 °C 
08:45:00-1.90 °C1019.40 hPa94.00 %-2.80 °C 
08:30:00-1.90 °C1019.20 hPa94.00 %-2.80 °C 
08:15:00-1.90 °C1019.10 hPa94.00 %-2.80 °C 
08:00:00-1.90 °C1019.00 hPa94.00 %-2.80 °C 
07:45:00-1.80 °C1018.90 hPa94.00 %-2.70 °C 
07:30:00-1.80 °C1018.60 hPa94.00 %-2.70 °C 
07:15:00-1.80 °C1018.30 hPa94.00 %-2.70 °C 
07:00:00-1.90 °C1018.20 hPa94.00 %-2.80 °C 
06:45:00-1.90 °C1017.90 hPa94.00 %-2.80 °C 
06:30:00-1.90 °C1018.00 hPa94.00 %-2.80 °C 
06:15:00-1.80 °C1017.90 hPa94.00 %-2.70 °C 
06:00:00-1.70 °C1017.60 hPa94.00 %-2.60 °C 
05:45:00-1.70 °C1017.30 hPa94.00 %-2.60 °C 
05:30:00-1.80 °C1017.10 hPa94.00 %-2.70 °C 
05:15:00-1.90 °C1016.90 hPa94.00 %-2.80 °C 
05:00:00-1.90 °C1017.10 hPa93.00 %-3.00 °C 
04:45:00-2.10 °C1016.80 hPa93.00 %-3.20 °C 
04:30:00-2.20 °C1016.60 hPa93.00 %-3.30 °C 
04:15:00-2.20 °C1016.60 hPa93.00 %-3.30 °C 
04:00:00-2.20 °C1016.60 hPa93.00 %-3.30 °C 
03:45:00-2.40 °C1016.40 hPa93.00 %-3.50 °C 
03:30:00-2.50 °C1016.50 hPa93.00 %-3.60 °C 
03:15:00-2.50 °C1016.40 hPa93.00 %-3.60 °C 
03:00:00-2.60 °C1016.10 hPa93.00 %-3.70 °C 
02:45:00-2.60 °C1016.30 hPa93.00 %-3.70 °C 
02:30:00-2.60 °C1016.20 hPa93.00 %-3.70 °C 
02:15:00-2.60 °C1016.00 hPa93.00 %-3.70 °C 
02:00:00-2.60 °C1015.90 hPa93.00 %-3.70 °C 
01:45:00-2.70 °C1015.70 hPa93.00 %-3.80 °C 
01:30:00-2.90 °C1015.60 hPa93.00 %-4.00 °C 
01:15:00-3.00 °C1015.50 hPa93.00 %-4.10 °C 
01:00:00-3.10 °C1015.60 hPa93.00 %-4.20 °C 
00:45:00-3.10 °C1015.70 hPa92.00 %-4.30 °C 
00:30:00-3.10 °C1015.70 hPa92.00 %-4.30 °C 
00:15:00-3.10 °C1015.70 hPa92.00 %-4.30 °C 
00:00:00-3.10 °C1015.70 hPa92.00 %-4.30 °C 

Permanenter Link zu dieser Seite: Wetter im Erzgebirge am 25.01.2015
Performance-Info: Die Erstellung der Seite / Statistik(en) / Tabelle(n) erforderte 5 Datenbankserver-Abfrage(n) und dauerte 125 Millisekunden. (Dieser Messwert ist von der Gesamt-Auslastung des Servers abhängig.)
Erzgebirge - Wetter | Erzgebirge - Wetter (Mobilgeräte) | Komplette Klimadatenbank